#timestamp,LO_Frequency,Hit,StdDev 
1651327215.5,286047000.1,N
1651327235.3,286046998.2,N
1651327255.2,286046998.6,N
1651327275.0,286046998.2,N
1651327275.9,286046998.2,N
1651327295.7,286047001.0,N
1651327315.6,286046998.8,N
1651327335.4,286046998.4,N
1651327355.3,286047000.8,N
1651327375.1,286046998.5,N
1651327376.0,286046998.5,N
1651327395.8,286046998.3,N
1651327415.7,286046999.5,N
1651327435.5,286046998.7,N
1651327455.3,286046999.0,N
1651327475.2,286046998.5,N
1651327495.0,286047001.1,N
1651327495.9,286047001.1,N
1651327515.8,286046998.7,N
1651327535.6,286046999.0,N
1651327555.4,286046998.6,N
1651327575.3,286046999.2,N
1651327595.1,286046998.5,N
1651327615.9,286046998.3,N
1651327635.7,286046997.0,N
1651327655.5,286046998.7,N
1651327675.4,286047000.9,N
1651327695.2,286046999.0,N
1651327715.0,286046999.2,N
1651327715.9,286046999.2,N
1651327735.8,286046997.6,N
1651327755.6,286046997.6,N
1651327775.5,286046999.4,N
1651327795.3,286046998.4,N
1651327815.1,286046998.5,N
1651327835.9,286046998.9,N
1651327855.7,286046996.9,Y
1651327875.5,286046998.7,P
1651327895.4,286047002.6,P
1651327915.2,286047002.5,N
1651327935.1,286047004.1,N
1651327936.0,286047004.1,N
1651327955.8,286047003.1,N
1651327975.6,286047001.4,N
1651327995.5,286047002.7,N
1651328015.3,286047003.7,N
1651328035.1,286047003.9,N
1651328055.9,286047001.7,N
1651328075.7,286046999.7,N
1651328095.6,286046997.0,N
1651328115.4,286046996.5,N
1651328135.2,286046998.5,N
1651328155.1,286047002.3,N
1651328156.0,286047002.3,N
1651328175.8,286047000.7,N
1651328195.6,286047001.2,N
1651328215.5,286046998.3,N
1651328235.3,286046998.7,N
1651328255.2,286046998.8,N
1651328275.9,286046998.5,N
1651328295.7,286046998.3,N
1651328315.6,286047001.2,N
1651328335.4,286047000.5,N
1651328355.2,286047001.2,N
1651328375.1,286046998.1,N
1651328376.0,286046998.1,N
1651328395.8,286046999.6,N
1651328415.7,286046998.3,N
1651328435.5,286046998.3,N
1651328455.3,286046997.9,N
1651328475.2,286046997.0,N
1651328495.0,286046996.3,N
1651328495.9,286046996.3,N
1651328515.7,286046995.2,N
1651328535.6,286046997.8,N
1651328555.4,286046997.4,N
1651328575.3,286046998.9,N
1651328595.1,286046998.9,N
1651328596.0,286046998.9,N
1651328615.8,286046998.3,N
1651328635.7,286046998.9,N
1651328655.5,286046999.0,N
1651328675.4,286047000.5,N
1651328695.2,286047000.3,N
1651328715.0,286047000.2,N
1651328715.9,286047000.2,N
1651328735.8,286046999.9,N
1651328755.6,286047001.6,N
1651328775.4,286047002.0,N
1651328795.3,286047003.9,N
1651328815.1,286047003.9,N
1651328835.9,286047005.6,N
1651328855.7,286047004.7,N
1651328875.5,286047003.5,N
1651328895.4,286047004.0,N
1651328915.2,286047003.6,N
1651328935.0,286047005.1,N
1651328935.9,286047005.1,N
1651328955.8,286047004.7,N
1651328975.6,286047003.0,N
1651328995.5,286047003.4,N
1651329015.3,286047004.1,N
1651329035.1,286047003.0,N
1651329055.9,286047003.0,N
1651329075.7,286047003.2,N
1651329095.5,286047003.3,N
1651329115.4,286047005.1,N
1651329135.2,286047005.0,N
1651329155.1,286047007.3,Y
1651329156.0,286047007.3,P
1651329175.8,286047003.0,N
1651329195.6,286047003.6,N
1651329215.5,286047005.8,Y
1651329235.3,286047000.7,P
1651329255.1,286046999.9,N
1651329275.9,286047001.0,N
1651329295.7,286046998.4,N
1651329315.6,286046999.9,N
1651329335.4,286047001.6,N
1651329355.2,286047006.0,Y
1651329375.1,286047003.3,P
1651329376.0,286047003.3,N
1651329395.8,286047005.5,P
1651329415.7,286047004.7,N
1651329435.5,286047006.9,Y
1651329455.3,286047002.3,P
1651329475.2,286047002.8,P
1651329495.0,286047000.3,N
1651329495.9,286047000.3,N
1651329515.7,286046998.5,N
1651329535.6,286046999.1,N
1651329555.4,286046998.8,N
1651329575.3,286047001.0,N
1651329595.1,286046999.4,N
1651329596.0,286046999.4,N
1651329615.8,286046999.0,N
1651329635.7,286046998.2,N
1651329655.5,286047001.0,N
1651329675.3,286047001.9,N
1651329695.2,286047000.4,N
1651329715.0,286047000.2,N
1651329715.9,286047000.2,N
1651329735.8,286047002.8,N
1651329755.6,286047002.2,N
1651329775.4,286047002.6,N
1651329795.3,286047001.2,N
1651329815.1,286047000.5,N
1651329835.8,286047000.9,N
1651329855.7,286047001.9,N
1651329875.5,286047003.7,N
1651329895.4,286047004.3,N
1651329915.2,286047003.3,N
1651329935.0,286047005.8,Y
1651329935.9,286047005.8,P
1651329955.8,286047004.0,N
1651329975.6,286047002.2,N
1651329995.4,286047000.4,N
1651330015.3,286047002.0,N
1651330035.1,286047000.0,N
1651330055.9,286046999.7,N
1651330075.7,286047001.6,N
1651330095.5,286047002.2,N
1651330115.4,286047001.8,N
1651330135.2,286047003.6,N
1651330155.0,286047003.5,N
1651330155.9,286047003.5,N
1651330175.8,286047001.8,N
1651330195.6,286047001.3,N
1651330215.5,286047001.5,N
1651330235.3,286047004.3,N
1651330255.1,286047003.3,N
1651330275.9,286047005.3,Y
1651330295.7,286047001.5,P
1651330315.6,286047002.2,P
1651330335.4,286047002.6,P
1651330355.2,286047000.5,N
1651330375.1,286047002.3,Y
1651330376.0,286047002.3,P
1651330395.8,286047002.8,P
1651330415.6,286046998.5,P
1651330435.5,286046998.4,N
1651330455.3,286046998.9,N
1651330475.2,286047000.6,N
1651330495.9,286046999.9,N
1651330515.7,286047000.2,N
1651330535.6,286047000.1,N
1651330555.4,286046998.2,N
1651330575.2,286047000.1,N
1651330595.1,286047000.3,N
1651330596.0,286047000.3,N
1651330615.8,286046998.7,N
1651330635.7,286046993.4,Y
1651330655.5,286046995.2,P
1651330675.3,286046997.0,N
1651330695.2,286046999.1,N
1651330715.0,286046999.4,N
1651330715.9,286046999.4,N
1651330735.7,286047001.2,N
1651330755.6,286046999.7,N
1651330775.4,286047000.7,N
1651330795.3,286047000.8,N
